Wind_Speed
21 19 17 15 13 12 10 8 7 8 9 11 12 13 14 14 15 15 13 12 10 4 10 6 6 6 4 4 3 2 2 2 2 2 3 3 3 4 2 4 6 7 7 5 4 5 9 10 6 5 3 12 24 31
20 19 17 16 15 12 10 9 8 9 11 11 12 13 14 14 15 15 13 14 14 7 8 15 16 14 13 8 3 7 2 4 6 3 1 1 3 1 3 3 0 3 6 5 9 7 5 8 9 10 23 27 28 32
23 21 18 16 15 14 13 13 13 12 13 12 12 13 14 16 17 16 12 12 14 7 10 3 2 5 12 17 15 5 4 5 4 4 5 2 5 4 3 5 2 4 6 3 1 2 5 19 16 17 31 34 39 36
27 23 22 20 18 16 16 17 17 16 13 13 13 13 13 15 17 15 13 10 9 6 4 1 3 3 4 4 8 19 17 7 5 5 5 3 3 5 3 2 3 4 6 3 6 13 14 5 30 40 39 35 33 33
31 28 26 24 22 22 20 19 20 18 16 16 16 15 16 16 14 13 13 12 10 5 3 8 17 13 9 10 11 14 15 17 10 3 3 3 3 2 2 1 4 9 6 4 5 1 1 18 33 30 31 33 33 29
32 30 30 28 27 25 23 22 20 19 16 16 15 14 14 14 12 10 3 3 6 5 4 3 6 5 7 7 7 8 9 8 7 4 4 5 3 4 2 3 7 10 10 7 5 15 22 17 17 21 25 26 23 24
32 34 32 35 33 29 23 21 20 18 16 14 14 14 11 11 9 5 3 2 4 5 3 6 5 2 2 2 1 3 7 6 6 4 4 2 2 4 2 3 6 2 8 16 10 10 8 14 16 22 23 24 23 21
35 35 33 27 24 18 14 11 11 10 11 11 11 10 8 7 9 7 11 11 8 6 4 3 4 2 2 1 1 2 3 5 5 3 3 4 3 4 5 13 15 11 10 9 14 12 11 15 19 24 27 29 31 32
22 21 22 18 15 12 9 8 7 6 8 8 7 7 7 6 4 3 3 3 6 9 4 4 2 3 3 2 1 1 2 1 2 3 3 5 2 5 7 7 3 7 5 9 17 22 25 27 29 32 34 35 33 34
17 15 14 13 11 9 7 7 6 6 5 4 4 3 1 1 1 2 1 2 4 6 7 5 4 3 3 2 2 3 2 1 1 3 4 2 4 24 17 13 4 4 5 11 21 30 33 35 35 36 35 36 37 36
7 6 7 8 9 9 10 9 7 5 4 4 4 2 3 4 2 1 2 3 4 3 5 5 11 2 4 2 2 3 1 2 1 2 2 2 4 5 4 12 11 10 13 11 13 15 18 22 28 34 38 39 39 39
8 9 9 9 9 9 9 8 8 6 5 5 4 4 3 1 3 2 3 3 4 4 4 3 4 7 3 4 1 2 1 1 4 5 2 3 3 6 10 15 5 14 27 22 20 22 26 28 35 36 38 40 40 39
10 8 8 8 8 8 8 8 8 8 8 7 3 3 2 3 3 5 5 4 2 4 6 5 2 4 4 5 2 1 3 3 3 1 3 5 4 12 15 8 17 26 34 38 36 36 40 42 43 42 44 43 42 41
10 10 10 9 9 8 8 8 9 11 6 5 5 4 5 4 5 5 4 4 4 3 7 9 2 3 3 2 3 3 2 2 2 2 6 3 11 7 25 30 36 41 42 42 43 42 40 43 47 43 41 45 45 46
11 11 11 10 9 9 9 10 11 12 5 4 5 5 6 8 6 2 6 3 1 2 8 3 2 2 1 1 3 1 3 5 5 5 3 3 4 23 36 43 41 44 43 46 48 46 49 50 49 51 49 49 49 51
12 14 14 12 12 11 11 12 13 13 5 5 8 3 5 1 4 8 9 8 7 9 7 3 2 2 5 3 4 7 3 6 4 4 6 13 29 36 41 41 46 46 46 48 52 50 48 50 51 52 52 51 52 51
15 17 13 13 13 12 15 17 15 10 8 6 7 16 14 7 6 11 13 18 12 10 3 4 4 9 1 3 4 4 5 4 9 14 26 35 42 44 43 45 47 48 48 49 49 49 51 52 53 52 53 54 51 49
18 15 15 11 12 15 17 22 10 9 11 14 8 15 22 18 18 22 22 18 15 14 8 7 5 4 6 6 4 5 13 23 34 40 43 41 44 47 49 49 46 45 46 49 51 52 52 51 47 48 47 49 48 49
18 16 14 13 15 16 8 7 9 7 17 6 15 14 15 22 28 30 27 23 23 23 18 7 4 4 6 10 17 29 34 38 35 39 38 46 50 47 41 41 42 44 47 45 48 48 47 48 49 50 49 46 46 48
17 17 16 15 17 12 6 6 8 6 6 7 13 19 17 19 29 33 34 33 29 22 12 6 10 24 23 34 38 41 41 39 34 32 38 45 45 36 38 42 47 47 47 45 45 43 43 47 44 41 40 41 41 43
17 19 17 17 19 19 8 7 7 5 4 8 16 20 10 16 24 27 29 25 17 12 12 22 29 35 39 42 48 44 44 46 39 39 42 40 40 39 45 50 46 43 41 43 44 50 43 41 44 46 43 43 44 46
18 18 18 20 13 9 12 13 7 5 7 10 9 9 7 8 16 27 25 17 12 27 28 35 37 40 43 48 53 54 51 47 49 48 45 40 38 45 44 43 41 40 42 44 46 44 42 49 46 44 41 39 39 40
17 16 14 10 7 7 4 10 8 7 3 6 10 4 6 9 20 21 7 18 32 41 42 44 44 44 49 53 50 47 50 50 46 47 49 43 44 43 40 39 40 41 43 47 43 41 43 45 42 39 38 40 41 42
18 10 10 9 15 5 6 7 8 6 7 4 3 5 6 10 9 8 5 27 42 46 38 44 45 44 43 38 41 48 49 47 38 42 41 39 43 41 34 39 43 44 45 48 43 45 44 40 40 41 43 40 40 40
6 8 8 6 10 8 8 5 5 4 6 4 6 5 5 6 3 3 5 30 40 37 42 42 39 40 38 40 41 43 49 41 40 42 40 35 37 35 36 40 46 47 43 42 42 44 45 41 40 41 41 39 37 38
8 14 11 13 9 7 8 6 9 10 4 5 8 6 5 3 4 6 10 44 37 35 38 38 37 35 34 39 43 45 44 43 40 36 34 32 35 37 38 41 49 54 44 43 35 38 41 44 42 38 35 32 32 35
7 8 10 12 7 6 3 6 6 4 6 7 4 3 5 6 8 8 38 40 35 43 43 44 43 40 41 44 40 41 38 35 35 34 35 35 38 40 40 43 52 56 52 48 42 38 36 35 34 33 34 34 34 36
11 14 9 14 10 14 4 3 6 7 6 11 6 6 7 9 9 34 38 42 40 39 39 40 37 38 36 36 38 38 37 37 38 40 40 41 44 48 49 49 50 47 40 34 29 27 29 31 33 34 34 34 35 32
9 13 12 6 7 6 12 9 7 18 30 20 8 13 13 38 42 42 47 47 48 46 47 50 51 48 47 48 47 45 44 43 43 44 46 48 52 54 51 46 42 36 32 28 26 26 27 28 30 32 31 32 31 28
10 13 8 6 7 7 21 24 36 42 33 33 36 37 39 45 55 55 48 50 49 54 57 55 54 51 49 49 47 48 51 51 51 47 44 46 49 45 44 40 33 28 26 27 28 27 26 27 28 27 27 27 24 23
9 18 10 14 11 32 43 41 39 41 41 41 40 33 45 51 53 53 45 49 50 51 43 48 54 54 50 47 45 45 47 48 43 42 40 37 34 32 32 26 25 27 26 26 26 27 29 29 29 27 24 24 21 19
12 17 9 5 17 36 33 30 29 30 34 31 35 32 36 27 27 43 42 29 30 35 34 39 43 45 40 42 41 40 40 40 37 35 34 33 35 34 30 27 27 27 25 24 25 27 27 27 27 23 21 20 17 14
7 9 10 8 8 7 15 13 8 7 12 16 26 28 30 24 11 27 34 33 27 24 26 29 29 26 26 26 28 29 29 28 26 25 25 26 26 26 26 26 26 24 22 22 25 25 25 26 23 18 17 15 13 11
Wind_Direction
222 223 228 229 236 242 251 267 281 301 324 336 338 344 350 354 360 358 351 350 359 309 289 257 246 232 221 213 163 163 86 218 77 175 187 231 208 232 209 184 180 172 153 185 176 215 272 183 108 168 235 310 315 317
221 227 233 234 231 237 248 262 280 300 311 319 322 331 339 343 346 348 344 339 336 301 272 286 275 258 245 238 228 196 248 193 203 109 223 128 241 222 188 260 63 236 191 179 190 216 239 194 253 295 315 314 317 314
221 231 234 235 236 242 247 261 269 275 288 299 310 318 323 327 331 333 335 337 345 325 299 291 304 286 245 243 232 234 214 210 210 210 173 197 235 141 203 242 252 254 183 218 181 293 274 295 302 329 330 321 316 314
224 229 237 241 246 246 248 254 262 270 278 288 300 306 310 315 320 321 324 324 327 318 294 280 321 299 246 232 224 231 245 241 228 217 216 196 225 188 221 273 224 228 156 206 266 295 342 310 321 326 326 317 319 317
229 232 235 240 241 244 246 250 261 266 275 284 290 300 304 309 311 312 311 303 288 242 269 287 291 284 268 263 250 242 242 239 229 215 189 229 235 182 222 313 228 198 206 184 230 66 259 295 317 331 330 327 323 324
230 229 234 239 241 246 247 243 252 259 264 275 281 285 291 299 308 322 341 19 118 66 342 324 298 284 289 272 249 237 225 225 211 202 231 257 248 215 231 245 262 223 235 263 283 307 303 314 331 345 337 343 346 339
234 232 238 234 238 236 231 240 247 254 261 268 275 278 282 283 283 272 266 301 308 328 328 300 289 289 292 269 181 156 179 177 188 200 227 282 297 250 274 251 257 239 311 315 336 342 333 344 335 356 359 356 354 349
217 213 211 214 215 214 217 226 241 252 264 266 269 274 270 270 269 262 257 261 267 284 251 263 268 291 216 255 248 164 159 175 193 201 205 203 195 204 249 242 269 305 339 40 23 14 352 351 356 354 351 350 347 346
186 192 200 193 187 186 192 211 223 240 246 256 265 266 270 250 226 239 271 261 229 228 260 237 247 258 168 161 155 161 191 222 196 212 224 167 204 233 232 241 259 33 40 13 19 18 11 3 356 353 349 348 341 334
154 162 170 165 166 168 173 197 199 212 225 234 236 226 193 220 220 244 263 196 205 222 237 240 232 279 177 179 207 157 181 235 224 235 163 227 257 259 255 241 218 355 327 352 356 1 358 357 356 350 343 338 335 333
142 158 175 180 181 182 187 188 189 186 196 204 197 146 167 171 205 287 248 206 198 239 228 247 218 262 232 222 256 211 164 161 273 281 165 234 266 284 333 182 154 63 15 342 317 327 339 337 336 334 335 336 330 328
182 180 188 195 196 197 197 196 196 194 176 158 128 162 209 169 201 177 223 213 209 239 239 221 223 207 213 207 202 190 260 200 238 165 139 253 253 351 151 137 128 348 345 342 334 325 322 316 322 322 327 327 325 320
191 197 198 193 196 202 201 194 186 180 165 151 179 175 135 176 231 210 203 214 220 207 208 199 187 179 197 196 166 203 242 233 133 220 235 233 272 67 41 339 324 334 336 336 331 324 325 324 323 324 320 320 319 316
198 195 196 198 200 202 202 198 191 179 161 176 174 218 189 226 223 202 175 194 201 252 203 184 164 188 186 167 178 211 211 157 234 222 235 245 149 341 342 342 334 331 329 325 322 321 318 318 319 321 319 321 322 317
211 210 208 207 204 202 203 198 195 186 179 206 180 236 215 222 231 195 212 231 250 165 167 172 165 203 205 223 213 187 214 239 210 228 230 154 296 327 328 329 328 326 323 320 320 319 317 318 318 317 315 316 316 313
216 220 220 216 214 207 203 198 194 188 210 220 228 239 236 291 215 212 200 219 209 186 186 216 169 233 234 205 189 209 213 215 237 213 236 294 310 316 321 321 317 312 309 310 311 313 314 314 314 312 312 311 308 310
221 228 228 223 218 212 213 204 195 193 215 228 236 219 220 227 211 220 226 226 202 175 202 165 200 225 66 214 222 205 217 222 260 291 301 306 307 306 307 305 304 307 310 313 313 312 310 309 308 306 305 307 309 309
224 225 224 215 204 201 207 211 195 206 228 224 225 221 219 233 237 236 233 228 207 211 213 214 211 177 208 206 245 247 272 286 289 289 288 292 299 303 303 302 305 309 309 308 308 308 306 305 304 298 298 299 302 304
230 230 226 216 206 197 201 229 207 227 223 217 227 233 219 236 251 257 258 256 250 244 240 216 219 212 228 236 256 266 268 270 270 278 284 293 295 295 295 298 301 303 302 304 305 302 299 300 299 299 298 299 298 303
230 230 224 216 209 199 211 231 217 239 219 226 234 244 231 239 260 260 257 251 244 232 234 227 241 245 249 258 262 263 267 272 274 277 280 283 287 289 293 298 299 300 298 303 307 311 305 301 298 297 294 293 294 291
228 226 223 216 215 212 218 217 216 222 236 231 254 245 243 248 250 254 251 250 228 232 244 249 254 255 256 259 262 265 267 268 268 268 272 278 283 286 291 296 296 297 296 298 297 304 309 305 301 300 297 295 299 303
226 224 219 217 219 219 215 210 196 211 231 248 245 230 225 223 246 251 255 215 226 240 238 250 252 253 257 261 266 267 265 270 272 272 272 272 274 282 289 297 296 293 295 299 302 303 311 314 316 317 312 315 316 311
221 219 212 199 213 220 232 197 197 219 207 233 235 203 244 234 252 262 222 244 252 262 261 257 259 268 268 274 271 268 272 272 269 272 277 279 290 288 288 292 293 293 297 301 305 301 301 312 314 309 310 314 314 314
209 197 194 200 195 220 187 199 211 222 230 220 187 246 270 241 260 212 234 256 260 260 260 261 261 262 265 265 262 268 279 278 267 275 280 282 284 287 292 295 298 297 298 302 304 303 305 302 311 313 313 310 314 312
211 196 190 209 198 182 203 204 197 210 242 201 183 238 246 190 175 219 233 263 265 264 261 259 257 255 254 262 265 265 279 273 274 276 287 285 283 285 288 295 297 298 303 299 295 300 302 303 302 304 308 306 308 311
198 210 202 197 182 181 188 182 203 211 183 200 231 240 218 167 213 241 253 263 270 270 267 263 259 258 257 256 260 268 278 283 281 277 283 287 288 285 287 294 299 299 302 299 293 293 295 297 301 305 307 308 309 311
201 206 208 211 201 187 212 229 201 178 190 210 222 172 188 223 226 242 261 271 271 278 278 276 274 268 270 279 275 281 288 285 278 279 288 290 289 289 286 287 290 297 304 302 300 298 297 297 300 302 305 306 307 311
220 196 191 195 201 213 182 189 182 209 217 221 176 189 203 206 240 261 272 282 287 287 284 284 284 280 278 283 285 282 276 272 274 279 282 283 287 288 288 289 293 299 301 300 298 300 298 298 299 301 302 303 305 312
217 217 197 197 182 202 210 205 221 240 246 242 232 251 247 253 261 272 280 282 285 283 281 280 283 283 282 282 282 278 273 273 273 275 278 280 287 288 288 289 292 296 297 298 298 298 300 298 296 298 301 305 307 307
219 193 200 208 179 222 240 239 253 260 262 259 256 260 264 266 268 275 277 278 275 275 276 276 279 279 276 278 279 281 281 283 282 276 269 271 281 292 291 287 292 291 293 295 297 299 297 293 291 292 296 302 302 303
229 198 218 229 237 250 254 262 264 267 267 266 263 255 261 268 279 278 275 274 273 273 275 275 273 273 271 267 266 267 273 281 278 282 282 283 282 279 280 285 286 287 289 291 293 296 298 297 294 295 296 297 299 300
208 207 200 242 258 262 264 263 266 267 267 262 263 259 263 264 262 283 288 283 277 272 275 277 273 279 288 281 279 276 278 283 285 282 281 279 276 277 281 283 282 282 283 286 292 294 298 296 292 293 291 290 293 289
221 232 232 266 285 266 268 241 250 266 256 251 259 258 253 249 248 266 281 291 288 292 291 296 298 298 299 298 297 296 293 290 292 291 285 277 274 275 278 275 273 273 278 285 288 293 295 294 292 289 282 280 281 275
Height
1526 1527 1529 1531 1533 1535 1536 1536 1536 1537 1537 1536 1535 1534 1533 1532 1530 1530 1529 1527 1527 1525 1522 1522 1522 1522 1522 1524 1525 1525 1527 1526 1528 1530 1530 1529 1530 1524 1521 1518 1524 1526 1534 1535 1536 1538 1525 1485 1490 1493 1486 1481 1479 1477
1521 1523 1525 1527 1529 1531 1533 1533 1533 1533 1533 1533 1533 1532 1531 1530 1529 1527 1527 1526 1524 1523 1520 1519 1519 1518 1520 1521 1521 1520 1522 1521 1521 1526 1529 1528 1525 1526 1522 1518 1514 1516 1508 1516 1514 1499 1483 1484 1482 1484 1484 1482 1477 1473
1516 1518 1521 1523 1526 1527 1528 1529 1530 1530 1529 1530 1530 1530 1530 1529 1527 1526 1524 1524 1521 1520 1515 1513 1514 1513 1513 1516 1519 1519 1517 1518 1519 1519 1519 1521 1522 1520 1520 1519 1509 1503 1501 1504 1501 1481 1483 1482 1483 1482 1479 1475 1469 1466
1510 1513 1516 1518 1521 1522 1523 1525 1525 1526 1526 1526 1526 1526 1527 1527 1525 1524 1522 1522 1522 1521 1518 1512 1511 1512 1512 1511 1512 1515 1516 1516 1516 1517 1518 1518 1518 1511 1511 1509 1508 1500 1501 1499 1496 1483 1480 1477 1477 1476 1471 1467 1463 1460
1504 1507 1510 1513 1516 1519 1519 1520 1521 1522 1522 1523 1523 1522 1523 1523 1523 1522 1519 1518 1519 1521 1517 1510 1507 1505 1507 1507 1507 1509 1512 1513 1515 1516 1515 1516 1511 1511 1508 1506 1499 1491 1490 1493 1490 1485 1485 1482 1477 1472 1466 1461 1456 1453
1497 1500 1505 1507 1510 1513 1513 1514 1516 1518 1518 1518 1519 1519 1519 1520 1520 1521 1518 1518 1519 1519 1516 1513 1507 1503 1504 1504 1504 1504 1505 1509 1513 1513 1513 1510 1508 1509 1509 1503 1484 1482 1483 1483 1483 1483 1480 1477 1474 1471 1465 1458 1453 1449
1488 1493 1498 1499 1504 1507 1507 1509 1511 1513 1514 1514 1516 1516 1515 1516 1516 1520 1520 1520 1519 1520 1518 1512 1505 1503 1503 1505 1502 1502 1503 1504 1507 1509 1510 1509 1509 1511 1506 1498 1482 1482 1483 1484 1481 1478 1474 1474 1471 1466 1462 1457 1453 1450
1480 1485 1487 1492 1496 1498 1501 1504 1507 1509 1511 1511 1513 1515 1513 1512 1513 1515 1515 1517 1518 1520 1519 1514 1502 1502 1502 1503 1503 1503 1502 1501 1504 1504 1506 1505 1505 1503 1497 1477 1480 1481 1481 1483 1482 1480 1477 1471 1466 1462 1458 1453 1448 1443
1475 1477 1482 1488 1490 1495 1497 1500 1504 1506 1509 1509 1511 1513 1512 1510 1510 1511 1511 1513 1516 1522 1516 1512 1507 1506 1501 1500 1502 1503 1503 1503 1503 1501 1502 1503 1502 1495 1474 1475 1477 1479 1478 1478 1477 1475 1472 1468 1463 1457 1453 1449 1445 1440
1470 1477 1481 1485 1488 1491 1493 1499 1501 1505 1507 1507 1510 1511 1509 1511 1511 1512 1510 1511 1513 1514 1512 1507 1504 1504 1501 1501 1501 1501 1503 1504 1505 1500 1500 1500 1492 1471 1474 1474 1475 1477 1479 1477 1474 1467 1463 1459 1458 1457 1454 1449 1444 1438
1474 1478 1482 1485 1487 1490 1493 1496 1500 1502 1505 1507 1507 1508 1509 1510 1511 1511 1511 1510 1509 1507 1504 1501 1499 1499 1500 1503 1502 1499 1497 1499 1500 1502 1501 1497 1488 1471 1468 1467 1477 1478 1478 1477 1474 1471 1469 1466 1460 1454 1448 1444 1438 1432
1476 1478 1482 1485 1488 1491 1493 1494 1497 1500 1502 1504 1506 1507 1509 1509 1509 1511 1511 1509 1505 1500 1500 1497 1496 1497 1497 1499 1501 1500 1499 1499 1495 1497 1498 1498 1479 1474 1472 1472 1473 1473 1471 1470 1469 1465 1460 1458 1454 1446 1441 1435 1430 1425
1475 1478 1482 1484 1487 1491 1494 1494 1496 1498 1501 1502 1505 1505 1504 1509 1511 1506 1513 1500 1499 1495 1495 1496 1494 1496 1497 1497 1498 1500 1498 1496 1497 1499 1497 1482 1472 1472 1474 1474 1471 1469 1466 1461 1458 1456 1452 1447 1444 1439 1432 1428 1421 1414
1475 1477 1480 1483 1486 1489 1492 1493 1494 1497 1500 1500 1502 1505 1501 1507 1499 1493 1493 1494 1492 1491 1492 1495 1495 1496 1497 1498 1496 1495 1495 1498 1495 1497 1492 1473 1469 1469 1469 1469 1468 1462 1459 1455 1450 1446 1442 1438 1432 1428 1424 1417 1411 1405
1473 1476 1478 1480 1484 1487 1489 1492 1492 1495 1498 1500 1500 1499 1492 1487 1487 1486 1490 1490 1489 1489 1493 1495 1496 1496 1496 1495 1494 1493 1492 1488 1483 1484 1472 1467 1467 1466 1464 1462 1458 1453 1449 1444 1439 1435 1432 1428 1423 1415 1412 1406 1401 1396
1470 1472 1474 1479 1482 1484 1487 1489 1491 1494 1497 1495 1491 1488 1489 1487 1485 1486 1487 1487 1487 1488 1492 1493 1493 1493 1489 1489 1489 1486 1484 1476 1474 1465 1463 1463 1462 1459 1458 1455 1452 1448 1444 1439 1434 1430 1425 1420 1414 1406 1399 1394 1390 1386
1465 1468 1472 1475 1478 1482 1484 1485 1488 1490 1491 1485 1481 1482 1481 1482 1480 1480 1482 1484 1486 1487 1489 1492 1492 1489 1485 1483 1480 1478 1475 1463 1459 1459 1458 1456 1455 1453 1451 1446 1442 1438 1434 1430 1425 1419 1414 1408 1402 1396 1388 1381 1378 1373
1461 1466 1469 1471 1475 1478 1480 1481 1483 1482 1478 1475 1476 1475 1477 1478 1476 1477 1478 1478 1480 1482 1483 1483 1479 1483 1479 1474 1473 1462 1457 1455 1455 1453 1451 1449 1447 1443 1440 1436 1432 1429 1424 1419 1415 1408 1402 1396 1390 1383 1377 1372 1367 1360
1458 1461 1464 1467 1471 1474 1477 1477 1474 1470 1467 1468 1469 1471 1471 1471 1472 1472 1473 1475 1476 1476 1475 1472 1472 1467 1461 1456 1454 1452 1451 1448 1445 1442 1441 1439 1435 1431 1430 1427 1422 1418 1413 1409 1404 1397 1392 1386 1379 1373 1368 1363 1357 1350
1454 1457 1460 1464 1468 1471 1472 1470 1468 1465 1463 1463 1464 1462 1462 1463 1463 1462 1463 1465 1467 1467 1465 1457 1451 1451 1450 1448 1447 1443 1441 1439 1438 1435 1431 1427 1423 1422 1420 1416 1410 1406 1402 1396 1391 1386 1379 1373 1369 1365 1359 1355 1349 1341
1450 1453 1457 1460 1463 1465 1465 1461 1461 1461 1459 1458 1455 1455 1454 1455 1454 1454 1454 1458 1459 1454 1449 1445 1444 1442 1440 1438 1435 1434 1432 1429 1427 1425 1420 1416 1414 1413 1408 1402 1399 1395 1391 1385 1380 1374 1370 1366 1359 1353 1348 1343 1338 1333
1446 1450 1453 1455 1456 1456 1454 1453 1454 1454 1455 1451 1451 1451 1450 1448 1445 1442 1443 1445 1441 1436 1435 1430 1427 1425 1424 1422 1417 1415 1415 1415 1412 1410 1407 1407 1405 1400 1395 1391 1388 1384 1380 1376 1372 1366 1360 1355 1350 1345 1339 1334 1330 1324
1444 1447 1448 1450 1451 1449 1448 1449 1450 1449 1449 1444 1443 1444 1441 1436 1432 1432 1432 1427 1422 1418 1417 1414 1410 1410 1408 1403 1403 1403 1401 1399 1399 1396 1394 1393 1390 1387 1386 1381 1378 1374 1369 1364 1364 1358 1352 1347 1341 1338 1333 1327 1321 1314
1440 1441 1441 1442 1442 1441 1441 1441 1442 1441 1438 1438 1439 1440 1432 1424 1423 1423 1420 1411 1403 1399 1404 1400 1399 1397 1395 1394 1391 1386 1384 1383 1385 1382 1382 1382 1376 1375 1376 1371 1368 1365 1362 1355 1352 1346 1342 1337 1334 1329 1325 1319 1313 1308
1436 1432 1434 1433 1433 1436 1434 1433 1433 1436 1431 1429 1432 1427 1416 1416 1419 1420 1411 1391 1385 1388 1384 1382 1383 1382 1382 1379 1378 1375 1372 1373 1372 1370 1370 1369 1366 1365 1364 1361 1356 1352 1352 1347 1342 1338 1332 1329 1325 1320 1316 1312 1306 1301
1424 1421 1420 1417 1419 1422 1421 1427 1425 1422 1422 1424 1417 1409 1407 1409 1412 1403 1386 1370 1373 1374 1373 1372 1371 1370 1369 1366 1364 1362 1360 1361 1361 1360 1359 1360 1358 1356 1354 1350 1344 1336 1344 1339 1335 1330 1325 1320 1316 1310 1306 1303 1300 1295
1409 1407 1406 1406 1407 1408 1410 1407 1407 1409 1408 1408 1405 1406 1403 1400 1392 1376 1365 1363 1364 1360 1359 1359 1358 1357 1354 1352 1352 1350 1350 1350 1348 1347 1348 1349 1347 1346 1344 1341 1334 1329 1331 1328 1325 1321 1316 1311 1306 1302 1298 1295 1292 1288
1396 1396 1398 1399 1400 1399 1400 1400 1401 1400 1395 1390 1390 1394 1387 1379 1366 1357 1356 1355 1355 1353 1350 1348 1347 1346 1344 1344 1342 1340 1338 1336 1336 1336 1335 1335 1333 1331 1330 1328 1323 1321 1319 1317 1314 1311 1308 1303 1298 1294 1291 1287 1284 1281
1387 1386 1389 1390 1392 1392 1391 1389 1383 1374 1372 1375 1375 1369 1363 1355 1351 1349 1346 1345 1343 1341 1339 1336 1334 1334 1333 1331 1329 1327 1327 1327 1327 1324 1321 1319 1316 1314 1317 1314 1311 1309 1308 1306 1304 1303 1299 1295 1290 1286 1283 1280 1277 1274
1378 1380 1383 1382 1384 1381 1370 1371 1363 1359 1361 1361 1359 1354 1348 1342 1337 1337 1337 1333 1330 1325 1321 1320 1320 1319 1316 1315 1313 1312 1312 1312 1311 1310 1307 1303 1300 1301 1300 1300 1300 1299 1299 1296 1293 1291 1290 1287 1283 1281 1278 1275 1272 1270
1369 1371 1372 1369 1365 1357 1355 1355 1355 1352 1351 1347 1346 1346 1335 1328 1325 1321 1322 1317 1313 1309 1310 1306 1300 1298 1297 1296 1295 1295 1293 1293 1294 1292 1291 1291 1290 1289 1288 1289 1289 1289 1289 1287 1284 1282 1279 1277 1274 1272 1271 1269 1267 1265
1361 1362 1362 1362 1350 1347 1350 1348 1345 1341 1336 1334 1326 1326 1322 1323 1318 1304 1298 1300 1298 1297 1293 1289 1288 1284 1284 1283 1283 1283 1283 1282 1281 1281 1281 1280 1279 1278 1278 1278 1278 1278 1278 1277 1275 1273 1271 1268 1266 1265 1264 1262 1262 1261
1355 1355 1354 1353 1348 1342 1337 1341 1333 1327 1322 1317 1312 1311 1308 1309 1304 1293 1290 1290 1288 1286 1284 1281 1279 1276 1275 1275 1274 1273 1272 1270 1270 1270 1270 1271 1270 1269 1269 1269 1269 1269 1269 1268 1267 1265 1263 1260 1259 1258 1257 1257 1257 1258